EHI
0 0 0 0 0 0 0 0 0 0 0 0 0 0 0 0 0 0 0 0 1 3 3 1 0 0 0 0 0 0 0 0 0 0 0 0 0 0 0 0 0 0 0
0 0 0 0 0 0 0 0 0 0 0 0 0 0 0 0 0 0 0 0 1 2 3 1 0 0 0 0 0 0 0 0 0 0 0 0 0 0 0 0 0 0 0
0 0 0 0 0 0 0 0 0 0 0 0 0 0 0 0 0 0 0 0 0 1 2 2 1 0 0 0 0 0 0 0 0 0 0 0 0 0 0 0 0 0 0
0 0 0 0 0 0 0 0 0 0 0 0 0 0 0 0 0 0 0 0 0 0 1 1 1 0 0 0 0 0 0 0 0 0 0 0 0 0 0 0 0 0 0
0 0 0 0 0 0 0 0 0 0 0 0 0 0 0 0 0 0 0 0 0 0 0 0 0 0 0 0 0 0 0 0 0 0 0 0 0 0 0 0 0 0 0
0 0 0 0 0 0 0 0 0 0 0 0 0 0 0 0 0 0 0 0 0 0 0 0 0 0 0 0 0 0 0 0 0 0 0 0 0 0 0 0 0 0 0
1 1 0 0 0 0 0 0 0 0 0 0 0 0 0 0 0 0 0 0 0 0 0 0 0 0 0 0 0 0 0 0 0 0 0 0 0 0 0 0 0 0 0
2 1 1 1 0 0 0 0 0 0 0 0 0 0 0 0 0 0 0 0 0 0 0 0 0 0 0 0 0 0 0 0 0 0 0 0 0 0 0 0 0 0 0
1 1 2 2 1 1 0 0 0 1 1 1 0 0 0 0 0 0 0 0 0 0 0 0 0 0 0 0 0 0 0 0 0 0 0 0 0 0 0 0 0 0 0
0 1 2 2 2 1 0 0 0 1 2 1 1 0 0 0 0 0 0 0 0 0 0 0 0 0 0 0 0 0 0 0 0 0 0 0 0 0 0 0 0 0 0
1 2 2 1 1 1 0 0 0 1 1 1 1 1 1 1 0 0 0 0 0 0 0 0 0 0 0 0 0 0 0 0 0 0 0 0 0 0 0 0 0 0 0
1 2 2 1 0 0 0 0 0 0 0 1 2 2 2 2 1 0 0 0 0 0 0 0 0 0 0 0 0 0 0 0 0 0 0 0 0 0 0 0 0 0 0
2 2 2 2 1 1 1 1 1 1 1 1 2 2 2 2 1 0 0 0 0 0 0 0 0 0 0 0 0 0 0 0 0 0 0 0 0 0 0 0 0 0 0
1 1 2 2 2 3 3 3 3 2 1 1 1 1 1 1 0 0 0 0 0 0 0 0 0 0 0 0 0 0 0 0 0 0 0 0 0 0 0 0 0 0 0
0 1 2 3 4 4 3 3 2 1 1 0 0 0 0 0 0 0 0 0 0 0 0 0 0 0 0 0 0 0 0 0 0 0 0 0 0 0 0 0 0 0 0
0 1 3 5 4 2 1 1 1 0 0 0 0 0 0 0 0 0 0 0 0 0 0 0 0 0 0 0 0 0 0 0 0 0 0 0 0 0 0 0 0 0 0
1 2 5 5 3 1 0 0 0 0 0 0 0 0 0 0 0 0 0 0 0 0 0 0 0 0 0 0 0 0 0 0 0 0 0 0 0 0 0 0 0 0 0
2 3 5 5 2 0 0 0 0 0 0 0 0 0 0 0 0 0 0 0 0 0 0 0 0 0 0 0 0 0 0 0 0 0 0 0 0 0 0 0 0 0 0
2 3 4 4 2 0 0 0 0 0 0 0 0 0 0 0 0 0 1 0 0 0 0 0 0 0 0 0 0 0 0 0 0 0 0 0 0 0 0 0 0 0 0
3 3 3 2 1 0 0 0 0 0 0 0 0 0 0 0 0 0 0 0 0 0 0 0 0 0 0 0 0 0 0 0 0 0 0 0 0 0 0 0 0 0 0
3 3 2 1 0 0 0 0 0 0 1 1 0 0 0 0 0 0 0 0 0 0 0 0 0 0 0 0 0 0 0 0 0 0 0 0 0 0 0 0 0 0 0
3 3 1 0 0 0 0 0 0 0 1 2 2 1 1 0 0 0 0 0 0 0 0 0 0 0 0 0 0 0 0 0 0 0 0 0 0 0 0 0 0 0 0
4 3 1 0 0 0 0 0 0 0 1 2 2 2 1 0 0 0 0 0 0 0 0 0 0 0 0 0 0 0 0 0 0 0 0 0 0 0 0 0 0 0 0
6 5 3 1 0 0 0 0 0 0 0 1 2 1 0 0 0 0 0 0 0 0 0 0 0 0 0 0 0 0 0 0 0 0 0 0 0 0 0 0 0 0 0
5 4 2 1 0 0 0 0 0 0 0 0 0 0 0 0 0 0 0 0 0 0 0 0 0 0 0 0 0 0 0 0 0 0 0 0 0 0 0 0 0 0 0
4 2 1 0 0 0 0 0 0 0 0 0 0 0 0 0 0 0 0 0 0 0 0 0 0 0 0 0 0 0 0 0 0 0 0 0 0 0 0 0 0 0 0
Wind_Speed
2 1 1 1 1 1 1 2 2 2 2 2 2 3 3 3 3 3 3 7 8 9 10 10 10 10 9 9 9 9 8 8 8 8 7 7 7 6 6 6 6 5 4
2 2 2 1 1 1 1 1 1 2 1 1 1 2 3 3 3 4 3 5 8 8 9 9 10 10 10 10 9 9 9 9 8 8 8 7 7 7 6 6 6 6 5
3 3 2 2 2 2 2 1 1 2 1 1 1 1 1 2 3 4 4 3 4 7 8 9 9 9 10 10 10 10 9 9 8 8 8 7 7 7 6 6 6 6 5
4 3 3 3 2 2 2 2 2 1 1 1 1 1 1 2 3 4 3 4 3 4 6 9 9 8 9 10 10 10 9 9 9 8 8 8 8 7 7 7 7 6 6
5 4 3 3 3 2 2 2 2 2 2 1 1 1 1 2 3 4 4 5 4 4 4 6 8 9 10 10 10 10 10 10 10 9 9 9 8 8 8 8 7 7 7
5 4 3 3 3 3 2 2 2 2 2 2 1 0 1 2 2 3 4 4 4 5 5 5 4 5 9 10 10 11 11 11 11 10 10 10 9 8 8 8 8 8 8
5 4 3 3 4 3 4 4 3 2 2 2 2 1 1 1 2 3 3 3 4 5 5 5 5 4 4 7 9 10 11 11 11 11 10 10 10 10 9 9 9 8 8
5 5 5 4 4 4 4 4 4 2 2 3 2 1 1 2 1 2 2 4 4 4 5 6 6 5 5 4 4 9 10 11 11 10 10 9 9 10 10 10 9 9 9
5 5 6 5 4 5 4 5 5 5 3 3 2 3 2 2 1 1 2 3 3 3 4 4 5 6 6 4 4 7 10 9 11 11 10 9 8 8 9 9 9 8 8
4 5 5 5 5 4 5 5 5 4 4 3 2 2 2 3 2 1 1 1 3 4 4 4 5 5 5 4 5 7 8 8 9 9 9 9 9 9 9 9 8 8 9
3 4 5 5 5 4 5 5 5 5 4 4 4 3 2 2 2 2 2 2 1 2 3 4 4 4 5 5 5 6 8 8 7 7 8 9 9 9 9 9 8 8 7
2 4 4 4 5 5 5 6 5 6 5 5 4 4 4 3 4 4 4 3 2 2 2 3 3 4 4 4 6 8 8 8 7 7 7 7 7 7 7 7 7 7 6
2 3 4 4 4 5 5 5 5 6 6 6 6 5 4 4 3 3 3 2 2 2 2 2 3 3 3 3 4 7 7 8 7 7 7 7 7 7 7 7 6 6 6
3 3 3 4 4 4 5 4 4 5 5 6 6 5 4 4 4 4 4 3 2 2 2 3 1 3 3 2 3 5 4 6 7 7 7 7 6 7 7 6 6 6 5
3 3 4 4 4 4 4 4 3 4 4 5 5 5 4 3 4 4 3 4 4 3 4 3 2 2 2 2 3 3 3 5 7 7 7 7 7 7 6 6 6 5 5
3 3 4 4 4 4 4 4 3 3 3 4 3 4 4 3 3 3 4 4 4 4 4 2 2 2 2 2 3 3 3 5 6 6 7 7 7 7 7 7 7 7 6
3 4 4 3 3 4 4 4 4 3 4 4 3 4 5 4 3 3 3 3 3 3 4 3 1 1 2 3 2 2 2 3 3 6 7 7 8 8 8 7 7 7 7
3 3 3 3 3 4 3 4 4 4 4 4 4 4 4 3 4 3 3 4 4 4 4 4 2 2 3 3 3 2 2 2 2 5 6 6 7 7 7 7 7 7 7
2 2 2 3 3 3 3 4 4 4 4 4 4 4 4 3 4 3 4 4 3 4 3 4 3 2 1 2 2 2 2 1 2 4 5 6 7 7 7 7 7 7 7
2 2 2 2 3 3 3 3 3 3 3 3 3 4 4 4 5 4 4 4 4 4 4 4 3 2 2 2 3 3 2 2 2 2 3 4 6 7 8 8 8 8 7
2 2 1 1 1 1 2 2 3 3 3 2 2 3 3 4 4 4 3 3 4 4 3 4 3 3 3 3 4 3 3 2 1 2 3 2 3 3 4 6 7 8 8
1 1 1 1 1 1 1 2 2 2 2 2 2 2 2 2 2 3 3 4 4 4 4 4 4 4 5 4 3 4 4 3 3 3 3 3 3 3 3 3 6 7 8
1 1 1 1 1 1 1 1 2 1 1 1 1 1 1 1 1 1 1 1 1 2 4 4 5 5 5 5 6 6 5 4 3 3 4 3 3 3 3 3 7 8 8
1 1 1 0 0 1 1 0 0 0 0 0 0 1 1 0 1 1 0 1 1 2 2 2 3 3 3 4 6 6 5 3 2 2 3 3 3 3 2 3 7 9 9
1 1 1 1 0 1 1 0 1 1 1 1 1 0 1 0 1 1 1 0 1 1 2 2 1 1 3 5 5 4 5 4 3 3 3 3 3 2 2 2 4 8 8
2 1 1 0 0 1 1 1 1 1 1 0 0 0 1 1 1 1 1 1 1 1 0 1 2 2 2 4 5 5 5 5 3 3 4 4 3 3 3 2 2 4 5
Wind_Direction
173 161 150 135 119 106 109 109 107 106 109 121 147 154 159 163 169 172 180 192 190 186 185 184 187 189 187 186 184 184 184 186 184 184 188 189 188 188 190 188 184 186 185
177 172 172 168 167 146 134 131 128 116 120 130 147 156 166 168 173 176 186 201 201 195 193 194 199 200 197 195 195 195 196 196 192 193 196 194 194 195 198 196 195 195 193
183 178 178 186 191 163 145 123 112 105 122 131 136 167 174 177 178 185 191 199 205 206 206 206 207 209 208 205 204 203 202 201 198 199 198 197 197 197 200 200 201 201 199
183 179 185 199 189 163 155 148 137 122 127 143 167 202 194 192 196 194 197 201 204 212 216 216 214 215 216 215 211 209 206 204 201 201 202 203 205 205 204 205 208 207 205
187 184 193 198 178 166 172 183 149 147 162 181 198 203 208 211 212 206 206 208 207 211 218 225 225 222 223 221 218 216 212 210 208 206 209 210 211 212 212 212 212 213 211
191 188 197 195 172 167 178 175 155 149 162 175 187 189 244 238 221 217 219 214 214 218 220 227 228 227 226 227 227 224 221 218 214 212 214 215 215 215 217 216 216 216 215
191 191 198 187 180 187 194 177 157 161 170 145 119 41 333 256 233 233 224 219 224 224 221 223 224 223 227 231 231 230 228 227 220 215 216 218 217 215 217 217 217 220 221
197 200 194 192 188 188 191 182 164 158 179 168 152 132 321 327 285 236 219 220 226 222 223 224 223 222 224 225 229 230 230 230 224 219 216 216 217 216 217 219 221 222 221
204 203 197 196 194 190 197 195 184 177 190 196 181 160 172 230 290 298 237 225 220 219 229 227 223 223 220 218 225 230 233 233 230 225 220 217 217 216 218 220 219 218 218
215 208 202 200 203 199 201 203 196 188 179 194 199 206 192 170 182 276 296 243 225 225 229 228 228 224 219 217 219 219 227 227 229 229 226 220 217 216 216 216 220 222 217
223 213 206 201 204 207 210 208 195 196 191 192 192 183 186 189 193 200 250 264 249 233 226 225 226 224 221 219 221 219 217 218 221 223 223 218 218 216 215 215 219 221 217
230 220 210 205 208 209 213 212 207 203 204 204 203 192 182 184 195 195 220 236 246 248 228 224 222 224 224 222 222 215 212 211 215 216 215 211 211 210 206 204 211 211 205
230 230 218 210 211 212 213 207 208 213 207 207 209 209 207 211 189 183 193 219 238 254 237 228 222 220 222 219 223 214 209 201 205 206 204 201 201 200 194 194 194 195 188
234 233 226 221 221 216 215 204 208 214 209 214 219 211 211 218 205 195 188 185 227 254 235 232 219 213 216 212 214 208 200 187 190 190 187 181 182 183 185 183 181 177 169
236 232 230 229 223 214 210 200 211 219 212 215 220 217 217 220 213 214 205 195 197 234 252 219 211 205 199 196 198 200 197 181 184 184 180 176 175 173 172 167 158 153 150
239 239 237 230 224 217 209 202 207 214 218 225 216 215 222 224 216 213 214 213 209 214 242 226 215 211 197 192 174 193 196 177 179 174 171 171 169 167 163 159 155 152 150
233 236 234 227 222 220 210 203 207 203 214 226 222 217 227 223 219 215 207 207 209 205 233 252 218 204 196 193 180 187 190 188 171 165 170 169 164 160 156 156 156 155 156
234 232 229 227 229 226 212 208 214 211 213 224 230 226 234 228 224 223 215 217 215 208 213 235 232 212 208 189 178 180 181 167 163 153 157 157 156 155 154 155 155 154 154
233 233 230 229 234 229 219 219 217 217 218 221 221 224 234 227 236 231 226 226 222 218 211 212 226 206 194 175 163 165 154 148 152 144 145 152 156 156 155 153 151 150 148
223 237 240 236 234 231 222 219 215 216 221 223 222 226 232 227 233 234 232 226 220 216 210 209 212 196 189 178 171 176 174 168 167 156 144 148 153 155 152 148 150 149 146
218 225 236 252 249 235 234 215 214 215 220 233 242 242 244 243 244 238 238 226 211 212 207 211 210 197 195 186 195 183 189 168 169 167 153 161 160 162 163 162 162 158 154
203 191 213 223 257 275 269 214 201 210 208 220 246 265 271 260 263 256 251 237 218 211 211 210 214 211 211 200 186 182 179 177 198 183 176 187 174 176 180 178 168 165 163
174 195 215 200 256 311 317 252 208 203 208 227 241 265 294 334 20 359 354 353 277 244 222 218 219 219 207 196 184 189 193 194 199 169 168 185 176 188 186 176 168 168 167
179 204 216 189 36 332 351 236 192 155 214 282 258 220 209 307 31 49 47 28 3 344 296 244 234 229 209 187 189 191 184 163 111 132 162 176 176 188 179 176 174 171 168
184 179 146 115 197 330 358 14 114 101 70 14 360 61 129 114 25 79 115 110 353 350 29 46 44 138 158 160 158 152 157 164 178 181 180 173 162 161 163 182 176 173 170
183 170 148 151 214 303 322 155 144 139 155 242 314 76 95 90 47 79 161 200 250 288 4 52 56 64 122 149 158 174 175 178 171 182 178 170 158 155 162 175 173 170 169